Location: Buffign�court
(47.8126°N, 6.0176°E)
Time: 20:28:02
(UTC+00:00)

SPOT 5 - Pass Details

Date: 16 June 2021
Orbit: 622 x 815 km, 98.2° (Epoch: 23 July)

Event Time Altitude Azimuth Distance (km) Brightness Sun altitude
Exits shadow 20:53:09 12° 154° (SSE) 2,189 4.7 -9.9°
Maximum altitude 20:57:54 69° 73° (ENE) 816 3.1 -10.4°
Drops below altitude 10° 21:02:49 10° 351° (N) 2,243 6.5 -10.9°
Sets 21:05:03 0° 349° (N) 3,139 7.5 -11.1°
